Tracking 17145 objects as of 29-May-2015
HD Live streaming from Space Station

COSMOS 2251 DEB

Track COSMOS 2251 DEB now!
10-day predictions
COSMOS 2251 DEB is classified as:


NORAD ID: 35451
Int'l Code: 1993-036AKV
Perigee: 565.3 km
Apogee: 735.9 km
Inclination: 73.9 °
Period: 97.6 minutes
Semi major axis: 7021 km
RCS: 0.0039 m2 (small)
Launch date: June 16, 1993
Source: Commonwealth of Independent States (former USSR) (CIS)

Note: This is SATELLITE DEBRIS
Your satellite tracking list
Your tracking list is empty





NASA's NSSDC Master Catalog

Two Line Element Set (TLE):
1 35451U 93036AKV 15146.24923878  .00002849  00000-0  37595-3 0  9994
2 35451 073.9443 238.7891 0121502 316.5607 042.6216 14.75538320327503

Source of the keplerian elements: AFSPC

N2YO: 365